Location: Fayetteville
(35.0530°N, 78.8790°W)
Time: 01:10:40
(UTC-04:00)

Hubble Space Telescope - Pass Details

Date: 21 June 2019
Orbit: 536 x 540 km, 28.5° (Epoch: 22 July)

Event Time Altitude Azimuth Distance (km) Brightness Sun altitude
Exits shadow 04:03:43 14° 146° (SSE) 1,562 3.0 -19.5°
Drops below altitude 10° 04:04:26 10° 139° (SE) 1,775 3.3 -19.4°
Sets 04:07:01 0° 125° (SE) 2,664 4.4 -19.0°
